Regional Weather Roundup
Issued by NWS Mt. Holly, NJ

Home | Current Version | Previous Version | Text Only | Print | Product List | Glossary On
Versions: 1 2 3 4 5 6 7 8 9 10 11 12 13 14 15 16 17 18 19 20 21 22 23 24 25 26 27 28
000
ASUS41 KPHI 202112
RWRPHI

REGIONAL WEATHER ROUNDUP
NATIONAL WEATHER SERVICE MOUNT HOLLY NJ
500 PM EDT FRI OCT 20 2017

NOTE:  "FAIR" INDICATES FEW OR NO CLOUDS BELOW 12,000 FEET WITH NO
SIGNIFICANT WEATHER AND/OR OBSTRUCTIONS TO VISIBILITY.

 * = STATION DOES NOT REPORT PRECIPITATION (E.G. RAIN, SNOW, ETC.)
        OR FOG.

NJZ015>026-202200-
SOUTHERN NEW JERSEY

CITY           SKY/WX    TMP DP  RH WIND       PRES   REMARKS
POMONA         SUNNY     73  41  31 NW9       30.14R
WILDWOOD*      SUNNY     70  46  42 NW7       30.16S
MILLVILLE      SUNNY     74  44  34 NW8       30.15S
WRIGHTSTOWN    SUNNY     72  33  24 NW10      30.11S
MOUNT HOLLY    SUNNY     72  34  24 W7        30.14S
TRENTON        SUNNY     73  32  22 NW9       30.13S

$$
NJZ001>014-202200-
NORTHERN NEW JERSEY

CITY           SKY/WX    TMP DP  RH WIND       PRES   REMARKS
SUSSEX         SUNNY     71  35  26 W8        30.14S
ANDOVER*         N/A     70  37  29 VRB3      30.15S
MORRISTOWN     SUNNY     72  34  25 NW12G17   30.12S
NEWARK         MOSUNNY   74  30  19 NW13G24   30.10S
TETERBORO      SUNNY     73  34  23 NW15G23   30.09S
CALDWELL       SUNNY     73  38  27 NW7       30.12S
SOMERVILLE     SUNNY     74  34  23 N9        30.11S
ALLAIRE*       SUNNY     71  37  28 W9        30.13S
TOMS RIVER*      N/A     71  36  27 NW12      30.14R

$$
PAZ043-044-047-054-055-060>062-066>071-202200-
EASTERN PENNSYLVANIA

CITY           SKY/WX    TMP DP  RH WIND       PRES   REMARKS
PHILADELPHIA   MOSUNNY   73  35  25 NW13      30.15F
NORTH PHILA    SUNNY     74  35  24 W9        30.16S
BLUE BELL*     SUNNY     70  34  26 W5        30.17S
DOYLESTOWN     SUNNY     73  28  18 NW8       30.14S
QUAKERTOWN*    SUNNY     72  32  23 N7        30.16S
PERKASIE*      FAIR      72  32  23 N6        30.17R
POTTSTOWN      SUNNY     70  38  31 NW5       30.18S
LANCASTER      SUNNY     70  38  31 NW12      30.18F
COATESVILLE    SUNNY     68  37  32 NW9       30.20S
READING        SUNNY     71  39  31 NW9       30.16F
ALLENTOWN      SUNNY     72  34  24 NW10      30.16S
MOUNT POCONO   SUNNY     64  33  31 NW8       30.19R
HAZLETON       SUNNY     70  32  24 NW7       30.23S
LEHIGHTON      FAIR      70  30  23 N5        30.18R
WILKES BARRE   SUNNY     69  32  25 NW9       30.19R

$$
DEZALL-MDZ008-012-015-019-020-202200-
DELAWARE AND EASTERN MARYLAND

CITY           SKY/WX    TMP DP  RH WIND       PRES   REMARKS
WILMINGTON     SUNNY     73  39  29 NW10      30.17S
DOVER          SUNNY     73  41  31 SW2       30.12R
GEORGETOWN     SUNNY     74  39  28 N5        30.17S
EASTON         SUNNY     73  45  35 NW6       30.21F
PATUXENT       MOSUNNY   73  53  49 N6        30.17F
OCEAN CITY     SUNNY     71  54  54 MISG      30.16S
WALLOPS ISLAND SUNNY     70  59  68 MISG      30.17S
CAMBRIDGE      SUNNY     72  48  43 NW5       30.18S
SALISBURY      SUNNY     74  48  39 W7        30.16S

$$
PAZ001-021-NYZ056-072-MDZ011-DCZ001-202200-
OTHER NEARBY LOCATIONS

CITY           SKY/WX    TMP DP  RH WIND       PRES   REMARKS
HARRISBURG     MOSUNNY   71  40  32 W6        30.18S
STATE COLLEGE  SUNNY     72  34  25 CALM      30.22F
WILLIAMSPORT   SUNNY     75  33  21 NW6       30.18S
BINGHAMTON     SUNNY     62  33  33 NW8       30.20F
NEW YORK CITY  NOT AVBL
BALTIMORE      MOSUNNY   74  40  29 NW8       30.17F
WASHINGTON DC  MOSUNNY   75  46  35 NW10      30.19S

$$




USA.gov is the U.S. government's official web portal to all federal, state and local government web resources and services.